E. V. Spence Reservoir Weather Center

Moon Phase Calendar



E. V. Spence Reservoir Water Level
Online Cameras

 


      

Current Conditions in Robert Lee
3/1/2021 10:09:43 AM

45°F
Feels Like 40
Clouds
Humidity
65%
Pressure
30.24"
Wind
3 mph (NNE)
Dew Point
34°F
UV Index
3/10 (Moderate)
Visibility
6 mi

Hourly Forecast

Date & Time Mon, Mar 1
10:00 AM
Mon, Mar 1
11:00 AM
Mon, Mar 1
12:00 PM
Mon, Mar 1
1:00 PM
Mon, Mar 1
2:00 PM
Mon, Mar 1
3:00 PM
Mon, Mar 1
4:00 PM
Mon, Mar 1
5:00 PM
Mon, Mar 1
6:00 PM
Mon, Mar 1
7:00 PM
Mon, Mar 1
8:00 PM
Mon, Mar 1
9:00 PM
Mon, Mar 1
10:00 PM
Mon, Mar 1
11:00 PM
Tue, Mar 2
12:00 AM
Tue, Mar 2
1:00 AM
Tue, Mar 2
2:00 AM
Tue, Mar 2
3:00 AM
Tue, Mar 2
4:00 AM
Tue, Mar 2
5:00 AM
Tue, Mar 2
6:00 AM
Tue, Mar 2
7:00 AM
Tue, Mar 2
8:00 AM
Tue, Mar 2
9:00 AM
Tue, Mar 2
10:00 AM
Tue, Mar 2
11:00 AM
Tue, Mar 2
12:00 PM
Tue, Mar 2
1:00 PM
Tue, Mar 2
2:00 PM
Tue, Mar 2
3:00 PM
Tue, Mar 2
4:00 PM
Tue, Mar 2
5:00 PM
Tue, Mar 2
6:00 PM
Tue, Mar 2
7:00 PM
Tue, Mar 2
8:00 PM
Tue, Mar 2
9:00 PM
Tue, Mar 2
10:00 PM
Tue, Mar 2
11:00 PM
Wed, Mar 3
12:00 AM
Wed, Mar 3
1:00 AM
Wed, Mar 3
2:00 AM
Wed, Mar 3
3:00 AM
Wed, Mar 3
4:00 AM
Wed, Mar 3
5:00 AM
Wed, Mar 3
6:00 AM
Wed, Mar 3
7:00 AM
Wed, Mar 3
8:00 AM
Wed, Mar 3
9:00 AM
Condition
Clouds

Clouds

Clouds

Clouds

Clouds

Clouds

Clouds

Clouds

Clouds

Clouds

Clouds

Clouds

Clouds

Clouds

Clouds

Clear

Clear

Clear

Clear

Clear

Clear

Clear

Clear

Clear

Clear

Clear

Clear

Clear

Clear

Clear

Clear

Clear

Clear

Clear

Clear

Clear

Clear

Clear

Clear

Clear

Clear

Clear

Clear

Clear

Clear

Clear

Clear

Clear
Temperature 45°F44°F42°F43°F46°F47°F46°F46°F45°F44°F44°F43°F41°F40°F39°F37°F36°F36°F36°F36°F35°F35°F38°F43°F47°F50°F53°F55°F57°F59°F60°F60°F59°F51°F51°F50°F49°F48°F47°F45°F44°F44°F43°F42°F42°F41°F44°F50°F
Feels Like 33°F31°F30°F30°F33°F34°F33°F34°F34°F34°F35°F34°F33°F33°F32°F32°F31°F30°F30°F29°F29°F28°F32°F36°F40°F43°F46°F49°F50°F51°F52°F52°F52°F45°F44°F42°F41°F40°F39°F38°F37°F36°F35°F35°F34°F34°F37°F41°F
Cloudiness 97%97%98%100%97%97%97%98%99%100%96%90%79%75%64%0%0%0%0%0%0%0%0%0%0%0%0%0%0%0%0%0%0%0%0%0%0%0%0%0%0%0%0%0%0%0%0%0%
Visibility 6 mi6 mi6 mi6 mi6 mi6 mi6 mi6 mi6 mi6 mi6 mi6 mi6 mi6 mi6 mi6 mi6 mi6 mi6 mi6 mi6 mi6 mi6 mi6 mi6 mi6 mi6 mi6 mi6 mi6 mi6 mi6 mi6 mi6 mi6 mi6 mi6 mi6 mi6 mi6 mi6 mi6 mi6 mi6 mi6 mi6 mi6 mi6 mi
Precipitation 5%1%6%29%27%28%28%20%19%0%3%0%0%0%0%0%0%0%0%0%0%0%0%0%0%0%0%0%0%0%0%0%0%0%0%0%0%0%0%0%0%0%0%0%0%0%0%0%
Humidity 65%65%71%71%66%64%66%64%66%66%63%65%68%71%75%81%84%83%84%84%85%86%74%61%51%44%39%35%32%30%29%29%32%41%41%43%45%48%50%54%57%58%61%64%67%68%64%55%
Dew Point 34°F33°F34°F34°F35°F35°F35°F34°F34°F34°F32°F31°F30°F31°F31°F31°F32°F31°F31°F30°F29°F28°F28°F27°F25°F22°F20°F19°F18°F18°F19°F19°F22°F20°F19°F19°F20°F21°F22°F23°F24°F25°F26°F28°F30°F31°F33°F35°F
Pressure 30.24"30.3"30.36"30.39"30.36"30.36"30.36"30.39"30.39"30.42"30.42"30.42"30.42"30.42"30.42"30.42"30.39"30.36"30.36"30.36"30.39"30.39"30.36"30.36"30.36"30.33"30.3"30.24"30.18"30.15"30.12"30.09"30.09"30.09"30.09"30.12"30.12"30.12"30.12"30.12"30.12"30.12"30.12"30.12"30.12"30.12"30.12"30.15"
Wind Speed 15.4 mph16.6 mph15.9 mph16.3 mph17.1 mph17.8 mph17.1 mph15.6 mph14.2 mph12.5 mph9.2 mph8.2 mph7.7 mph5.7 mph5 mph2.8 mph3 mph4.7 mph4.8 mph5 mph4.7 mph4.5 mph4.3 mph5.3 mph6.3 mph5.6 mph4.7 mph5 mph5.4 mph6.2 mph6.4 mph6.4 mph4.6 mph4.4 mph6.3 mph6.4 mph6.7 mph6.9 mph7.3 mph7 mph6.7 mph7.1 mph6.9 mph6.8 mph6.4 mph6.5 mph7.2 mph11.3 mph
Wind
Direction
31°
NNE
14°
NNE
11°
N
13°
NNE
13°
NNE
12°
NNE
12°
NNE

N

N
13°
NNE
11°
N
13°
NNE
14°
NNE
21°
NNE
35°
NE
61°
ENE

N
341°
NNW
327°
NNW
322°
NW
328°
NNW
306°
NW
292°
WNW
299°
WNW
300°
WNW
302°
WNW
285°
WNW
264°
W
258°
WSW
257°
WSW
259°
W
251°
WSW
230°
SW
186°
S
173°
S
174°
S
171°
S
169°
S
174°
S
171°
S
174°
S
182°
S
185°
S
183°
S
183°
S
186°
S
194°
SSW
205°
SSW

Daily Forecast

Date High Low Precip. Humidity
Today
Mar 1

Rain
49 °F
40 °F
70%
73%
Tuesday
Mar 2

Clear
60 °F
35 °F
0%
27%
Wednesday
Mar 3

Clear
72 °F
42 °F
0%
32%
Thursday
Mar 4

Clouds
75 °F
53 °F
0%
43%
Friday
Mar 5

Clear
68 °F
54 °F
0%
32%
Saturday
Mar 6

Clouds
55 °F
47 °F
0%
56%
Sunday
Mar 7

Clear
68 °F
42 °F
0%
51%
Monday
Mar 8

Clouds
72 °F
48 °F
0%
68%
Tuesday
Mar 9

Clouds
77 °F
60 °F
0%
54%
Wednesday
Mar 10

Clouds
82 °F
65 °F
0%
53%
Thursday
Mar 11

Clouds
71 °F
57 °F
0%
22%
Friday
Mar 12

Rain
59 °F
51 °F
77%
58%
Saturday
Mar 13

Rain
65 °F
51 °F
60%
89%
Sunday
Mar 14

Rain
72 °F
56 °F
91%
16%
Monday
Mar 15

Clouds
79 °F
52 °F
0%
13%
Tuesday
Mar 16

Clear
67 °F
55 °F
0%
20%


Temperature 8-14 Day Outlook



Precipitation 8-14 Day Outlook




Quick Links
E. V. Spence Reservoir News
E. V. Spence Reservoir Photos
E. V. Spence Reservoir Videos




About Us
Contact Us
Site Map
Search Site
Advertise With Us
   
Spence.LakesOnline.com
THE E. V. SPENCE RESERVOIR WEBSITE

Copyright 2021, Lakes Online
Privacy    |    Legal